Flag for Canada Weather past 2 weeks in Laval, Quebec, Canada

Now
27 °F

Mostly cloudy.


Feels Like: 21 °F
Forecast: 26 / 50 °F
Wind: 5 mph from Southwest

Location: Montreal / Mirabel

Current Time: Apr 2, 2015 at 6:10:55 AM

Latest Report: Apr 2, 2015 at 5:00 AM


Visibility: 25 mi

Pressure: 30.11 "Hg

Humidity: 59%

Dew point: 14 °F

Location of LavalLocation

Historic Weather in Laval — Graph

°F

Laval temperature yesterday

Maximum temperature yesterday: 34 °F (at 3:00 PM)
Minimum temperature yesterday: 16 °F (at 7:00 AM)
Average temperature yesterday: 26 °F

Past Weeks' High & Low Weather Summary

 TemperatureHumidityPressure
High41 °F (Mar 25, 4:00 PM)100% (Mar 21, 3:00 PM)30.42 "Hg (Mar 21, 3:00 PM)
Low0 °F (Mar 23, 7:00 AM)19% (Mar 19, 6:00 PM)29.49 "Hg (Mar 30, 2:00 PM)
Average24 °F56%30.04 "Hg
* Reported Mar 18 5:00 AM — Apr 2 5:00 AM, Laval, Weather by CustomWeather, © 2015

Note: Actual official high and low records may vary slightly from our data, if they occured in-between our weather recording intervals... More about our weather records

Advertising

Laval weather history for previous 24 hours

 ConditionsComfort  
Time TempWeatherWind HumidityBarometerVisibility
5:00 AM
Thu, Apr 2
27 °FMostly cloudy.5 mph59%30.11 "Hg25 mi
4:00 AM25 °FPassing clouds.5 mph59%30.11 "Hg25 mi
3:00 AM27 °FPassing clouds.3 mph54%30.13 "Hg25 mi
2:00 AM27 °FPassing clouds.6 mph54%30.12 "Hg25 mi
1:00 AM27 °FPassing clouds.6 mph50%30.13 "Hg25 mi
12:00 AM27 °FPassing clouds.6 mph50%30.14 "Hg25 mi
11:00 PM
Wed, Apr 1
27 °FClear.5 mph50%30.12 "Hg25 mi
10:00 PM27 °FClear.3 mph50%30.12 "Hg25 mi
9:00 PM28 °FPassing clouds.5 mph51%30.14 "Hg25 mi
8:00 PM30 °FScattered clouds.7 mph43%30.14 "Hg25 mi
7:00 PM32 °FScattered clouds.9 mph40%30.13 "Hg40 mi
6:00 PM34 °FPassing clouds.8 mph38%30.12 "Hg45 mi
5:00 PM34 °FPassing clouds.12 mph35%30.12 "Hg45 mi
4:00 PM34 °FPassing clouds.16 mph32%30.11 "Hg45 mi
3:00 PM34 °FPassing clouds.12 mph25%30.11 "Hg45 mi
2:00 PM32 °FPassing clouds.10 mph27%30.11 "Hg45 mi
1:00 PM30 °FPassing clouds.7 mph34%30.11 "Hg45 mi
12:00 PM27 °FScattered clouds.8 mph33%30.14 "Hg45 mi
11:00 AM25 °FScattered clouds.2 mph36%30.14 "Hg45 mi
10:00 AM23 °FScattered clouds.3 mph36%30.13 "Hg45 mi
9:00 AM21 °FPartly sunny.7 mph35%30.12 "Hg45 mi
8:00 AM21 °FPartly sunny.5 mph38%30.11 "Hg45 mi
7:00 AM16 °FPassing clouds.6 mph48%30.07 "Hg45 mi
6:00 AM18 °FPassing clouds.6 mph45%30.02 "Hg25 mi
Weather by CustomWeather, © 2015

See weather overviewHow to use our weather pages